SL-16 DEB, 22292

Orbit data source: Space-Track

SL-16 DEB, 22292 is space debris in LEO originally from a launch on Fri, 25 Dec 1992 UTC launched from the Tyuratam Missile And Space Complex (TTMTR). Debris objects in space refer to the collection of defunct objects orbiting the Earth. Examples of debris include non-operational satellites, rocket bodies, and fragments generated from explosions, collisions, or faulty payload assembly.

Loading next visibility...
Identifier
22292, 1992-093G
Orbit
LEO
Country
Flag of CISCIS
Related business
Manufacturer
Yuzhnoe
Mission
Spacecraft
Bus & Motor
SEP MOTOR COVER, Unknown motor
Mass
~0 kg wet, ~1 kg dry
Launch date (UTC)
1992-12-25 (33 years ago)
Launch vehicle
Unknown
Launch site
Tyuratam Missile And Space Complex (TTMTR)
Object type
Payload
Rocket body
Debris
Shape & HBR
Unknown shape, 0.2 m
Radar Cross Section
Small (<0.1 m²)

Expand to show TLE details & history
Last TLE update: 14 hours ago

TLE from 14 hours ago
0 SL-16 DEB
1 22292U 92093G   26133.36090527  .00000060  00000-0  97815-4 0  9997
2 22292  71.0048 240.6037 0209780 165.0228 255.6664 13.71046381664140
Epoch: 2026-05-13T08:39Z
TLE epoch observation values (Epoch: 2026-05-13T08:39:42.215Z)
Latitude
53.73185°
Longitude
-92.62079°
Altitude
1,045.409 km
Speed
7.314 km/s
True Right ascension
17h 53m 42s
True Declination
53° 34' 27"
Sunlit
Object was in daylight at epoch
Visualization orbit readout
Latitude
Unknown
Longitude
Unknown
Altitude
Unknown
Speed
Unknown
Apparent Right ascension
Unknown
Apparent Declination
Unknown
Sunlit
N/A
Visualization observer readout
Local Sidereal Time
06:53:50
Azimuth
Unknown
Elevation
Unknown
Doppler factor
Unknown
Orbital elements
Apogee altitude
1,148.431 km
Perigee altitude
839.135 km
Semi-major axis
7,371.92 km
Eccentricity
0.02098
Inclination
71.0048°
RAAN
240.6037°
Arg. of periapsis
165.0228°
True anomaly
253.35298°
Mean anomaly
255.6664°
Eccentric anomaly
254.50812°
Mean motion
3.42904 °/min
Orbital period
104.99 mins
BSTAR
0.000097815
Loading maneuver chart data...
Computing Atmospheric mass density...
Loading historical data...
Loading historical data...
Loading historical data...
Loading historical data...
Loading historical data...
Loading historical data...
Loading historical data...

Documentation

Showing up to 5 results
|